Regional Weather Roundup
Issued by NWS

Home | Current Version | Previous Version | Graphics & Text | Print | Product List | Glossary On
Versions: 1 2 3 4 5 6 7 8 9 10 11 12 13 14 15 16 17 18 19 20 21 22 23 24 25 26 27 28 29 30 31 32 33 34 35 36 37 38 39 40 41 42 43 44 45 46 47 48 49 50
780
ASUS44 KLIX 241601
RWRLA
LOUISIANA WEATHER ROUNDUP
NATIONAL WEATHER SERVICE NEW ORLEANS LA
1100 AM CDT THU JUL 24 2014

NOTE: "FAIR" INDICATES FEW OR NO CLOUDS BELOW 12,000 FEET WITH NO
      SIGNIFICANT WEATHER AND/OR OBSTRUCTIONS TO VISIBILITY.
      SKY/WX - SKY CONDITION AND SIGNIFICANT WEATHER.
      TMP - AIR TEMPERATURE.    DP   - DEWPOINT TEMPERATURE.
      RH  - RELATIVE HUMIDITY.  PRES - PRESSURE.
      HX  - HEAT INDEX.         WCI  - WIND CHILL INDEX.

*  THESE STATIONS ARE NOT NWS OR FAA STATIONS AND ARE NOT UNDER
   NWS QUALITY CONTROL.

LAZ040-048-061>063-065-066-069-241700-
SOUTHEAST LOUISIANA

CITY           SKY/WX    TMP DP  RH WIND       PRES   REMARKS
N.O. AUDUBON     N/A     87  75  67 MISG        N/A  HX  96
N.O. INTL ARPT PTSUNNY   86  73  65 CALM      30.01S
N.O. LAKEFRONT MOSUNNY   84  75  74 N3        30.02S
N.O. DOWNTOWN* FAIR      84  72  65 CALM      30.02S
SLIDELL        MOSUNNY   86  73  65 CALM      30.01F
BATON ROUGE    PTSUNNY   86  72  62 CALM      30.01F
BOOTHVILLE       N/A     83  75  77 W9        30.03S
BELLE CHASSE   PTSUNNY   86  72  62 E5        30.01F
BOGALUSA*        N/A     86  72  62 CALM      30.04S
GALLIANO*      NOT AVBL
NEW ROADS*     FAIR      81  75  82 CALM      30.02S
GONZALES*      FAIR      83  74  74 CALM      30.01F
HAMMOND*       MOSUNNY   86  70  58 E3        30.03F
HOUMA*         MOSUNNY   86  70  58 CALM      30.00F
PORT FOURCHON* SUNNY     82  75  78 S8        30.03S

$$

LAZ041-044-053-054-241700-
SOUTHWEST LOUISIANA

CITY           SKY/WX    TMP DP  RH WIND       PRES   REMARKS
LAKE CHARLES   MOSUNNY   84  72  67 N8        30.01F
LAFAYETTE      PTSUNNY   85  75  72 NE3       30.01F
PATTERSON      SUNNY     86  72  62 N5        30.05S
SALT POINT       N/A     86  77  74 CALM      30.00S HX  97
NEW IBERIA     PTSUNNY   89  76  65 CALM      30.01F HX 100
CHENAULT AIRPK NOT AVBL

$$

LAZ027-028-241700-
CENTRAL LOUISIANA

CITY           SKY/WX    TMP DP  RH WIND       PRES   REMARKS
FORT POLK      SUNNY     80  70  71 VRB3      30.03F
ALEXANDRIA INT SUNNY     83  70  64 N6        30.01F
ALEXANDRIA     SUNNY     85  72  65 N5        30.03S

$$

LAZ001-002-241700-
NORTHWEST LOUISIANA

CITY           SKY/WX    TMP DP  RH WIND       PRES   REMARKS
SHREVEPORT     CLOUDY    76  69  79 N3        30.06S
BARKSDALE AFB  CLOUDY    75  69  81 N6        30.07R
DTN SHREVEPORT NOT AVBL

$$

LAZ014-016-241700-
NORTHEAST LOUISIANA

CITY           SKY/WX    TMP DP  RH WIND       PRES   REMARKS
MONROE         PTSUNNY   80  72  76 CALM      30.05F
TALLULAH       MOSUNNY   84  74  71 S5        30.03S

$$




USA.gov is the U.S. government's official web portal to all federal, state and local government web resources and services.